Regional Weather Roundup
Issued by NWS

Home | Current Version | Previous Version | Text Only | Print | Product List | Glossary On
Versions: 1 2 3 4 5 6 7 8 9 10 11 12 13 14 15 16 17 18 19 20 21 22 23 24 25 26 27 28 29 30 31 32 33 34 35 36 37 38 39 40 41 42 43 44 45 46 47 48 49 50
000
ASUS44 KFWD 301010
RWRTX
NORTH TEXAS HOURLY WEATHER ROUNDUP
NATIONAL WEATHER SERVICE FORT WORTH TX
500 AM CDT FRI SEP 30 2016

NOTE: "FAIR" INDICATES FEW OR NO CLOUDS BELOW 12,000 FEET WITH NO
SIGNIFICANT WEATHER AND/OR OBSTRUCTIONS TO VISIBILITY.

TXZ118-119-301100-
DALLAS/FORT WORTH METROPLEX

CITY           SKY/WX    TMP DP  RH WIND       PRES   REMARKS
DFW AIRPORT    CLEAR     60  53  77 N8        30.19S
DALLAS LOVE    CLEAR     60  52  74 N3        30.20R
FTW MEACHAM    CLEAR     58  50  75 NW3       30.20S
DAL-EXECUTIVE  CLEAR     57  52  83 NW6       30.19S
FTW-ALLIANCE   CLEAR     51  48  89 CALM      30.20F
FTW-NAS-JRB    CLEAR     58  50  75 NW6       30.21S
FTW-SPINKS     CLEAR     49  47  93 CALM      30.22S FOG
ARLINGTON      CLEAR     53  52  96 CALM      30.20S
GRAND PRAIRIE  CLEAR     60  52  75 N3        30.21S
ADDISON        CLEAR     59  53  82 CALM      30.22R
MESQUITE       CLEAR     56  51  84 NW3       30.20R
LANCASTER      CLEAR     57  49  77 CALM      30.21R
$$

TXZ091>094-102>105-117-120-121-131>134-301100-
NORTH CENTRAL TEXAS

CITY           SKY/WX    TMP DP  RH WIND       PRES   REMARKS
SHRMAN/DENISON CLEAR     54  52  95 CALM      30.22S
GAINESVILLE      N/A     53  49  85 NW6       30.23S
BOWIE          CLEAR     53  50  90 N5        30.22F
BRIDGEPORT     CLEAR     52  52 100 SW3       30.24S
DECATUR        CLEAR     56  47  73 N3        30.22S
DENTON         CLEAR     51  49  92 NW3       30.21S
MCKINNEY       CLEAR     52  50  93 N3        30.20R
GREENVILLE     CLEAR     54  48  82 CALM      30.19R
ROCKWALL       CLEAR     57  51  81 CALM      30.18S
TERRELL        CLEAR     55  49  80 N3        30.19R
WAXAHACHIE     CLEAR     55  52  89 N3        30.21S
CLEBURNE       CLEAR     54  52  94 NW5       30.23R
GRANBURY       CLEAR     54  50  87 CALM      30.23S
$$

TXZ083>090-098>101-113>116-127>130-139>142-154-155-301100-
WESTERN NORTH TEXAS

CITY           SKY/WX    TMP DP  RH WIND       PRES   REMARKS
WICHITA FALLS  CLEAR     52  48  86 N7        30.24S
WF-KICKAPOO    CLEAR     56  50  79 N3        30.25S
VERNON         CLEAR     54  46  72 NW3       30.26S
ABILENE        CLEAR     54  50  86 CALM      30.26F
ABILENE-DYESS  CLEAR     49  47  91 SW3       30.25F
CISCO          PTCLDY    52  48  87 NW5       30.25S
BRECKENRIDGE   CLEAR     52  51  97 CALM      30.25R
MINERAL WELLS  CLEAR     50  48  93 W3        30.21S
STEPHENVILLE   CLEAR     52  48  86 CALM      30.25S
COMANCHE       CLEAR     55  50  86 CALM      30.24S
BROWNWOOD      PTCLDY    52  48  87 CALM      30.25S
COLEMAN        CLOUDY    55  48  79 W5        30.26S
$$

TXZ143>147-156>162-174-175-301100-
CENTRAL TEXAS

CITY           SKY/WX    TMP DP  RH WIND       PRES   REMARKS
WACO           CLEAR     55  52  89 N9        30.20R
WACO-MCGREGOR  CLEAR     52  49  89 CALM      30.21R
HILLSBORO      CLEAR     54  51  90 N6        30.20S
MEXIA          CLEAR     56  51  81 W8        30.18S
HEARNE         CLEAR     53  51  94 CALM      30.20R
CAMERON        CLEAR     56  52  84 NW6       30.19S
TEMPLE         CLEAR     51  49  92 NW6       30.21R
KILLEEN        CLEAR     58  50  76 N10       30.21R
KILLEEN-SKYLRK CLEAR     56  51  84 NW5       30.22R
FORT HOOD      CLEAR     55  51  85 NW5       30.19R
GATESVILLE     CLEAR     52  48  87 CALM      30.24S
HAMILTON       CLEAR     53  50  90 NW3       30.24S
LAMPASAS       CLEAR     55  53  91 CALM      30.22S
$$

TXZ095>097-106>112-122>126-135>138-148>153-164>167-301100-
EAST TEXAS

CITY           SKY/WX    TMP DP  RH WIND       PRES   REMARKS
PARIS          CLEAR     54  46  76 N8        30.18S
SULPHUR SPRNGS CLEAR     60  52  75 N6        30.20S
MOUNT PLEASANT CLEAR     51  50  97 CALM      30.18S
GILMER         CLEAR     54  50  86 CALM      30.16S
MINEOLA        CLEAR     54  52  94 CALM      30.17S
TYLER          CLEAR     55  51  86 CALM      30.17R
LONGVIEW       CLEAR     51  50  96 NW5       30.15S
MARSHALL       CLEAR     50  48  92 CALM      30.17R
ATHENS         CLEAR     50  50 100 CALM      30.17R
PALESTINE      CLEAR     54  52  95 CALM      30.18S
JACKSONVILLE   CLEAR     60  51  72 N3        30.18R
HENDERSON      CLEAR     51  51  98 CALM      30.17R
CENTER         SUNNY     55  53  95 CALM      30.15S
NACOGDOCHES    CLEAR     52  48  87 NW3       30.14S
LUFKIN         CLEAR     52  50  93 CALM      30.15R
$$

SUPPLEMENTAL OBSERVATIONS (CENTRAL)

CITY           SKY/WX    TMP DP  RH WIND       PRES   REMARKS
CADDO GRASSLND   N/A     50  45  81 CALM        N/A
MCGREGOR         N/A     52  48  87 CALM        N/A
TEMPLE           N/A     59  48  67 NW2         N/A
$$

SUPPLEMENTAL OBSERVATIONS (WEST)

CITY           SKY/WX    TMP DP  RH WIND       PRES   REMARKS
MILLERS CREEK    N/A     54  52  94 NW2         N/A
POSSUM KINGDOM   N/A     52  46  82 W3          N/A
LBJ GRASSLAND    N/A     54  48  82 N2          N/A
GRANBURY         N/A     52  48  87 W1          N/A
HAMBY            N/A     50  46  87 CALM        N/A
IVIE RESERVOIR   N/A     54  48  82 CALM        N/A
COLORADO BEND    N/A     52  46  82 NW1         N/A
$$

SUPPLEMENTAL OBSERVATIONS (EAST)

CITY           SKY/WX    TMP DP  RH WIND       PRES   REMARKS
TEXARKANA        N/A     50  48  93 CALM        N/A
LINDEN           N/A     54  50  87 CALM        N/A
N SABINE NF      N/A     52  50  93 MISG        N/A
$$

SUPPLEMENTAL OBSERVATIONS ARE A COLLECTION OF AUTOMATED INSTRUMENTS
THAT ARE MAINTAINED BY A VARIETY OF FEDERAL AND STATE AGENCIES.
CERTAIN ELEMENTS...SUCH AS HUMIDITY VALUES AND SUSTAINED WIND
SPEEDS...MAY BE APPROXIMATED.





USA.gov is the U.S. government's official web portal to all federal, state and local government web resources and services.